Time,TemperatureF,DewpointF,PressureIn,WindDirection,WindDirectionDegrees,WindSpeedMPH,WindSpeedGustMPH,Humidity,HourlyPrecipIn,Conditions,Clouds,dailyrainin,SoftwareType,DateUTC
2013-07-28 00:02:00,56.0,51.9,29.98,WSW,241,0.0,0.0,86,0.00,,,0.00,WUHU216DAVISVP2,2013-07-28 07:02:00,
2013-07-28 00:07:00,55.8,51.7,29.98,WSW,241,0.0,0.0,86,0.00,,,0.00,WUHU216DAVISVP2,2013-07-28 07:07:00,
2013-07-28 00:12:00,55.6,51.5,29.98,WSW,241,0.0,0.0,86,0.00,,,0.00,WUHU216DAVISVP2,2013-07-28 07:12:00,
2013-07-28 00:17:00,55.4,51.6,29.98,WSW,241,0.0,0.0,87,0.00,,,0.00,WUHU216DAVISVP2,2013-07-28 07:17:00,
2013-07-28 00:22:00,55.3,51.8,29.98,WSW,241,0.0,0.0,88,0.00,,,0.00,WUHU216DAVISVP2,2013-07-28 07:22:00,
2013-07-28 00:27:00,55.2,51.7,29.98,WSW,241,0.0,0.0,88,0.00,,,0.00,WUHU216DAVISVP2,2013-07-28 07:27:00,
2013-07-28 00:32:00,55.1,51.6,29.98,WSW,241,0.0,0.0,88,0.00,,,0.00,WUHU216DAVISVP2,2013-07-28 07:32:00,
2013-07-28 00:37:00,54.9,51.4,29.98,WSW,241,0.0,0.0,88,0.00,,,0.00,WUHU216DAVISVP2,2013-07-28 07:37:00,
2013-07-28 00:42:00,54.8,51.6,29.98,WSW,241,0.0,0.0,89,0.00,,,0.00,WUHU216DAVISVP2,2013-07-28 07:42:00,
2013-07-28 00:47:00,54.7,51.5,29.98,WSW,241,0.0,0.0,89,0.00,,,0.00,WUHU216DAVISVP2,2013-07-28 07:47:00,
2013-07-28 00:52:00,54.6,51.4,29.98,WSW,241,0.0,0.0,89,0.00,,,0.00,WUHU216DAVISVP2,2013-07-28 07:52:00,
2013-07-28 00:57:00,54.5,51.3,29.98,WSW,253,0.0,0.0,89,0.00,,,0.00,WUHU216DAVISVP2,2013-07-28 07:57:00,
2013-07-28 01:02:00,54.4,51.2,29.99,East,96,0.0,0.0,89,0.00,,,0.00,WUHU216DAVISVP2,2013-07-28 08:02:00,
2013-07-28 01:07:00,54.4,51.5,29.98,NE,51,0.0,1.0,90,0.00,,,0.00,WUHU216DAVISVP2,2013-07-28 08:07:00,
2013-07-28 01:12:00,54.5,51.3,29.98,NE,54,0.0,1.0,89,0.00,,,0.00,WUHU216DAVISVP2,2013-07-28 08:12:00,
2013-07-28 01:17:00,54.5,51.3,29.99,NE,54,0.0,1.0,89,0.00,,,0.00,WUHU216DAVISVP2,2013-07-28 08:17:00,
2013-07-28 01:22:00,54.4,51.2,29.98,NE,54,0.0,0.0,89,0.00,,,0.00,WUHU216DAVISVP2,2013-07-28 08:22:00,
2013-07-28 01:27:00,54.3,51.1,29.98,NE,54,0.0,0.0,89,0.00,,,0.00,WUHU216DAVISVP2,2013-07-28 08:27:00,
2013-07-28 01:32:00,54.2,51.3,29.98,NE,54,0.0,0.0,90,0.00,,,0.00,WUHU216DAVISVP2,2013-07-28 08:32:00,
2013-07-28 01:37:00,54.1,51.2,29.98,NE,54,0.0,0.0,90,0.00,,,0.00,WUHU216DAVISVP2,2013-07-28 08:37:00,
2013-07-28 01:42:00,54.0,51.1,29.98,NE,54,0.0,0.0,90,0.00,,,0.00,WUHU216DAVISVP2,2013-07-28 08:42:00,
2013-07-28 01:47:00,53.8,50.6,29.98,NE,54,0.0,0.0,89,0.00,,,0.00,WUHU216DAVISVP2,2013-07-28 08:47:00,
2013-07-28 01:52:00,53.6,50.7,29.98,NE,54,0.0,0.0,90,0.00,,,0.00,WUHU216DAVISVP2,2013-07-28 08:52:00,
2013-07-28 01:57:00,53.4,50.5,29.98,NE,54,0.0,0.0,90,0.00,,,0.00,WUHU216DAVISVP2,2013-07-28 08:57:00,
2013-07-28 02:02:00,53.2,50.3,29.99,NE,54,0.0,0.0,90,0.00,,,0.00,WUHU216DAVISVP2,2013-07-28 09:02:00,
2013-07-28 02:07:00,53.1,50.5,29.99,NE,54,0.0,0.0,91,0.00,,,0.00,WUHU216DAVISVP2,2013-07-28 09:07:00,
2013-07-28 02:12:00,52.9,50.3,29.98,NE,54,0.0,0.0,91,0.00,,,0.00,WUHU216DAVISVP2,2013-07-28 09:12:00,
2013-07-28 02:17:00,52.7,50.1,29.99,NE,54,0.0,0.0,91,0.00,,,0.00,WUHU216DAVISVP2,2013-07-28 09:17:00,
2013-07-28 02:22:00,52.5,49.9,29.99,NE,54,0.0,0.0,91,0.00,,,0.00,WUHU216DAVISVP2,2013-07-28 09:22:00,
2013-07-28 02:27:00,52.3,49.7,29.99,NE,54,0.0,0.0,91,0.00,,,0.00,WUHU216DAVISVP2,2013-07-28 09:27:00,
2013-07-28 02:32:00,52.2,49.9,29.98,NE,54,0.0,0.0,92,0.00,,,0.00,WUHU216DAVISVP2,2013-07-28 09:32:00,
2013-07-28 02:37:00,52.1,49.8,29.98,NE,54,0.0,0.0,92,0.00,,,0.00,WUHU216DAVISVP2,2013-07-28 09:37:00,
2013-07-28 02:42:00,52.0,49.7,29.98,NE,54,0.0,0.0,92,0.00,,,0.00,WUHU216DAVISVP2,2013-07-28 09:42:00,
2013-07-28 02:47:00,51.9,49.6,29.98,NE,54,0.0,0.0,92,0.00,,,0.00,WUHU216DAVISVP2,2013-07-28 09:47:00,
2013-07-28 02:52:00,51.7,49.4,29.98,NE,54,0.0,0.0,92,0.00,,,0.00,WUHU216DAVISVP2,2013-07-28 09:52:00,
2013-07-28 02:57:00,51.6,49.3,29.99,NE,54,0.0,0.0,92,0.00,,,0.00,WUHU216DAVISVP2,2013-07-28 09:57:00,
2013-07-28 03:02:00,51.4,49.1,29.98,NE,54,0.0,0.0,92,0.00,,,0.00,WUHU216DAVISVP2,2013-07-28 10:02:00,
2013-07-28 03:07:00,51.3,49.3,29.98,NE,54,0.0,0.0,93,0.00,,,0.00,WUHU216DAVISVP2,2013-07-28 10:07:00,
2013-07-28 03:12:00,51.2,49.2,29.99,NE,54,0.0,0.0,93,0.00,,,0.00,WUHU216DAVISVP2,2013-07-28 10:12:00,
2013-07-28 03:17:00,51.1,49.1,29.99,NE,54,0.0,0.0,93,0.00,,,0.00,WUHU216DAVISVP2,2013-07-28 10:17:00,
2013-07-28 03:22:00,51.0,49.0,29.98,NE,54,0.0,0.0,93,0.00,,,0.00,WUHU216DAVISVP2,2013-07-28 10:22:00,
2013-07-28 03:27:00,50.9,48.9,29.98,NE,54,0.0,0.0,93,0.00,,,0.00,WUHU216DAVISVP2,2013-07-28 10:27:00,
2013-07-28 03:32:00,50.7,48.7,29.98,NE,54,0.0,0.0,93,0.00,,,0.00,WUHU216DAVISVP2,2013-07-28 10:32:00,
2013-07-28 03:37:00,50.6,48.6,29.98,NE,54,0.0,0.0,93,0.00,,,0.00,WUHU216DAVISVP2,2013-07-28 10:37:00,
2013-07-28 03:42:00,50.4,48.4,29.99,NE,54,0.0,0.0,93,0.00,,,0.00,WUHU216DAVISVP2,2013-07-28 10:42:00,
2013-07-28 03:47:00,50.3,48.6,29.99,NE,54,0.0,0.0,94,0.00,,,0.00,WUHU216DAVISVP2,2013-07-28 10:47:00,
2013-07-28 03:52:00,50.2,48.5,29.99,NE,54,0.0,0.0,94,0.00,,,0.00,WUHU216DAVISVP2,2013-07-28 10:52:00,
2013-07-28 03:57:00,50.1,48.4,29.99,NE,54,0.0,0.0,94,0.00,,,0.00,WUHU216DAVISVP2,2013-07-28 10:57:00,
2013-07-28 04:02:00,50.0,48.3,29.99,NE,54,0.0,0.0,94,0.00,,,0.00,WUHU216DAVISVP2,2013-07-28 11:02:00,
2013-07-28 04:07:00,49.9,48.2,29.99,NE,54,0.0,0.0,94,0.00,,,0.00,WUHU216DAVISVP2,2013-07-28 11:07:00,
2013-07-28 04:12:00,49.8,48.1,29.99,NE,54,0.0,0.0,94,0.00,,,0.00,WUHU216DAVISVP2,2013-07-28 11:12:00,
2013-07-28 04:17:00,49.7,48.0,29.99,NE,54,0.0,0.0,94,0.00,,,0.00,WUHU216DAVISVP2,2013-07-28 11:17:00,
2013-07-28 04:22:00,49.6,47.9,29.99,NE,54,0.0,0.0,94,0.00,,,0.00,WUHU216DAVISVP2,2013-07-28 11:22:00,
2013-07-28 04:27:00,49.4,47.7,29.99,NE,54,0.0,0.0,94,0.00,,,0.00,WUHU216DAVISVP2,2013-07-28 11:27:00,
2013-07-28 04:32:00,49.3,47.6,29.98,NE,54,0.0,0.0,94,0.00,,,0.00,WUHU216DAVISVP2,2013-07-28 11:32:00,
2013-07-28 04:37:00,49.2,47.5,29.98,NE,54,0.0,0.0,94,0.00,,,0.00,WUHU216DAVISVP2,2013-07-28 11:37:00,
2013-07-28 04:43:00,49.0,47.3,29.98,NE,54,0.0,0.0,94,0.00,,,0.00,WUHU216DAVISVP2,2013-07-28 11:43:00,
2013-07-28 04:47:00,48.9,47.2,29.98,NE,54,0.0,0.0,94,0.00,,,0.00,WUHU216DAVISVP2,2013-07-28 11:47:00,
2013-07-28 04:52:00,48.7,47.0,29.99,NE,54,0.0,0.0,94,0.00,,,0.00,WUHU216DAVISVP2,2013-07-28 11:52:00,
2013-07-28 04:57:00,48.6,46.9,29.98,NE,54,0.0,0.0,94,0.00,,,0.00,WUHU216DAVISVP2,2013-07-28 11:57:00,
2013-07-28 05:02:00,48.6,47.2,29.98,NE,54,0.0,0.0,95,0.00,,,0.00,WUHU216DAVISVP2,2013-07-28 12:02:00,
2013-07-28 05:07:00,48.5,47.1,29.98,NE,54,0.0,0.0,95,0.00,,,0.00,WUHU216DAVISVP2,2013-07-28 12:07:00,
2013-07-28 05:13:00,48.4,47.0,29.98,NE,54,0.0,0.0,95,0.00,,,0.00,WUHU216DAVISVP2,2013-07-28 12:13:00,
2013-07-28 05:17:00,48.2,46.8,29.98,NE,54,0.0,0.0,95,0.00,,,0.00,WUHU216DAVISVP2,2013-07-28 12:17:00,
2013-07-28 05:22:00,48.1,46.7,29.98,NE,54,0.0,0.0,95,0.00,,,0.00,WUHU216DAVISVP2,2013-07-28 12:22:00,
2013-07-28 05:27:00,48.0,46.6,29.99,NE,54,0.0,0.0,95,0.00,,,0.00,WUHU216DAVISVP2,2013-07-28 12:27:00,
2013-07-28 05:32:00,48.0,46.6,29.99,NE,54,0.0,0.0,95,0.00,,,0.00,WUHU216DAVISVP2,2013-07-28 12:32:00,
2013-07-28 05:37:00,47.9,46.5,29.98,NE,54,0.0,0.0,95,0.00,,,0.00,WUHU216DAVISVP2,2013-07-28 12:37:00,
2013-07-28 05:42:00,47.9,46.5,29.99,NE,54,0.0,0.0,95,0.00,,,0.00,WUHU216DAVISVP2,2013-07-28 12:42:00,
2013-07-28 05:47:00,47.8,46.4,29.99,NE,54,0.0,0.0,95,0.00,,,0.00,WUHU216DAVISVP2,2013-07-28 12:47:00,
2013-07-28 05:52:00,47.7,46.3,29.98,NE,54,0.0,0.0,95,0.00,,,0.00,WUHU216DAVISVP2,2013-07-28 12:52:00,
2013-07-28 05:57:00,47.7,46.3,29.98,NE,54,0.0,0.0,95,0.00,,,0.00,WUHU216DAVISVP2,2013-07-28 12:57:00,
2013-07-28 06:02:00,47.6,46.2,29.99,NE,54,0.0,0.0,95,0.00,,,0.00,WUHU216DAVISVP2,2013-07-28 13:02:00,
2013-07-28 06:07:00,47.6,46.2,29.99,NE,54,0.0,0.0,95,0.00,,,0.00,WUHU216DAVISVP2,2013-07-28 13:07:00,
2013-07-28 06:12:00,47.6,46.2,29.99,NE,54,0.0,0.0,95,0.00,,,0.00,WUHU216DAVISVP2,2013-07-28 13:12:00,
2013-07-28 06:17:00,47.6,46.5,29.99,NE,54,0.0,0.0,96,0.00,,,0.00,WUHU216DAVISVP2,2013-07-28 13:17:00,
2013-07-28 06:22:00,47.8,46.7,29.99,NE,54,0.0,0.0,96,0.00,,,0.00,WUHU216DAVISVP2,2013-07-28 13:22:00,
2013-07-28 06:27:00,47.9,46.8,29.99,NE,54,0.0,0.0,96,0.00,,,0.00,WUHU216DAVISVP2,2013-07-28 13:27:00,
2013-07-28 06:32:00,48.3,48.3,29.99,NE,54,0.0,0.0,100,0.00,,,0.00,WUHU216DAVISVP2,2013-07-28 13:32:00,
2013-07-28 06:37:00,48.4,47.6,29.99,NE,54,0.0,0.0,97,0.00,,,0.00,WUHU216DAVISVP2,2013-07-28 13:37:00,
2013-07-28 06:42:00,48.7,47.9,29.99,NE,54,0.0,0.0,97,0.00,,,0.00,WUHU216DAVISVP2,2013-07-28 13:42:00,
2013-07-28 06:47:00,48.8,48.0,29.99,NE,54,0.0,0.0,97,0.00,,,0.00,WUHU216DAVISVP2,2013-07-28 13:47:00,
2013-07-28 06:52:00,49.1,48.3,29.99,NE,54,0.0,0.0,97,0.00,,,0.00,WUHU216DAVISVP2,2013-07-28 13:52:00,
2013-07-28 06:57:00,49.4,48.6,29.99,NE,54,0.0,0.0,97,0.00,,,0.00,WUHU216DAVISVP2,2013-07-28 13:57:00,
2013-07-28 07:02:00,49.6,48.8,29.99,NE,54,0.0,0.0,97,0.00,,,0.00,WUHU216DAVISVP2,2013-07-28 14:02:00,
2013-07-28 07:07:00,49.6,48.8,30.00,NE,54,0.0,0.0,97,0.00,,,0.00,WUHU216DAVISVP2,2013-07-28 14:07:00,
2013-07-28 07:12:00,49.7,48.9,30.00,NE,54,0.0,0.0,97,0.00,,,0.00,WUHU216DAVISVP2,2013-07-28 14:12:00,
2013-07-28 07:17:00,49.7,48.9,30.00,NE,54,0.0,1.0,97,0.00,,,0.00,WUHU216DAVISVP2,2013-07-28 14:17:00,
2013-07-28 07:22:00,49.7,48.9,30.00,NE,54,0.0,1.0,97,0.00,,,0.00,WUHU216DAVISVP2,2013-07-28 14:22:00,
2013-07-28 07:27:00,49.7,48.9,30.00,NE,54,0.0,1.0,97,0.00,,,0.00,WUHU216DAVISVP2,2013-07-28 14:27:00,
2013-07-28 07:32:00,49.8,48.7,30.00,North,10,0.0,1.0,96,0.00,,,0.00,WUHU216DAVISVP2,2013-07-28 14:32:00,
2013-07-28 07:37:00,49.8,49.0,30.00,North,10,0.0,1.0,97,0.00,,,0.00,WUHU216DAVISVP2,2013-07-28 14:37:00,
2013-07-28 07:42:00,49.8,48.7,30.00,North,10,0.0,1.0,96,0.00,,,0.00,WUHU216DAVISVP2,2013-07-28 14:42:00,
2013-07-28 07:47:00,49.8,48.7,30.00,North,10,0.0,0.0,96,0.00,,,0.00,WUHU216DAVISVP2,2013-07-28 14:47:00,
2013-07-28 07:52:00,49.9,49.1,30.00,North,10,0.0,0.0,97,0.00,,,0.00,WUHU216DAVISVP2,2013-07-28 14:52:00,
2013-07-28 07:57:00,50.0,49.2,30.00,North,10,0.0,0.0,97,0.00,,,0.00,WUHU216DAVISVP2,2013-07-28 14:57:00,
2013-07-28 08:02:00,50.0,50.0,30.00,North,10,0.0,0.0,100,0.00,,,0.00,WUHU216DAVISVP2,2013-07-28 15:02:00,
2013-07-28 08:07:00,50.0,49.2,30.00,North,10,0.0,0.0,97,0.00,,,0.00,WUHU216DAVISVP2,2013-07-28 15:07:00,
2013-07-28 08:12:00,50.1,49.3,30.00,North,10,0.0,0.0,97,0.00,,,0.00,WUHU216DAVISVP2,2013-07-28 15:12:00,
2013-07-28 08:17:00,50.2,49.4,30.00,North,10,0.0,1.0,97,0.00,,,0.00,WUHU216DAVISVP2,2013-07-28 15:17:00,
2013-07-28 08:22:00,50.3,49.5,30.00,North,10,0.0,1.0,97,0.00,,,0.00,WUHU216DAVISVP2,2013-07-28 15:22:00,
2013-07-28 08:27:00,50.4,49.6,30.00,North,10,0.0,0.0,97,0.00,,,0.00,WUHU216DAVISVP2,2013-07-28 15:27:00,
2013-07-28 08:32:00,50.5,49.7,30.00,North,10,0.0,0.0,97,0.00,,,0.00,WUHU216DAVISVP2,2013-07-28 15:32:00,
2013-07-28 08:37:00,50.5,49.7,30.00,North,10,0.0,0.0,97,0.00,,,0.00,WUHU216DAVISVP2,2013-07-28 15:37:00,
2013-07-28 08:42:00,50.5,49.7,30.00,North,10,2.0,2.0,97,0.00,,,0.00,WUHU216DAVISVP2,2013-07-28 15:42:00,
2013-07-28 08:47:00,50.5,49.7,30.00,North,9,0.0,2.0,97,0.00,,,0.00,WUHU216DAVISVP2,2013-07-28 15:47:00,
2013-07-28 08:52:00,50.6,49.7,30.00,North,9,0.0,0.0,97,0.00,,,0.00,WUHU216DAVISVP2,2013-07-28 15:52:00,
2013-07-28 08:57:00,50.7,49.8,30.01,North,9,0.0,1.0,97,0.00,,,0.00,WUHU216DAVISVP2,2013-07-28 15:57:00,
2013-07-28 09:02:00,50.8,49.9,30.01,North,9,0.0,1.0,97,0.00,,,0.00,WUHU216DAVISVP2,2013-07-28 16:02:00,
2013-07-28 09:07:00,51.0,50.1,30.01,North,9,0.0,1.0,97,0.00,,,0.00,WUHU216DAVISVP2,2013-07-28 16:07:00,
2013-07-28 09:12:00,51.2,50.3,30.01,North,9,0.0,0.0,97,0.00,,,0.00,WUHU216DAVISVP2,2013-07-28 16:12:00,
2013-07-28 09:17:00,51.3,50.4,30.01,North,9,0.0,0.0,97,0.00,,,0.00,WUHU216DAVISVP2,2013-07-28 16:17:00,
2013-07-28 09:22:00,51.3,50.4,30.01,North,9,0.0,0.0,97,0.00,,,0.00,WUHU216DAVISVP2,2013-07-28 16:22:00,
2013-07-28 09:27:00,51.4,50.3,30.01,North,9,0.0,1.0,96,0.00,,,0.00,WUHU216DAVISVP2,2013-07-28 16:27:00,
2013-07-28 09:32:00,51.5,50.4,30.01,North,9,0.0,1.0,96,0.00,,,0.00,WUHU216DAVISVP2,2013-07-28 16:32:00,
2013-07-28 09:38:00,51.7,50.6,30.01,North,9,0.0,0.0,96,0.00,,,0.00,WUHU216DAVISVP2,2013-07-28 16:38:00,
2013-07-28 09:43:00,51.9,50.8,30.01,North,9,0.0,0.0,96,0.00,,,0.00,WUHU216DAVISVP2,2013-07-28 16:43:00,
2013-07-28 09:48:00,52.2,51.1,30.01,North,9,0.0,0.0,96,0.00,,,0.00,WUHU216DAVISVP2,2013-07-28 16:48:00,
2013-07-28 09:53:00,52.3,50.9,30.01,North,9,0.0,1.0,95,0.00,,,0.00,WUHU216DAVISVP2,2013-07-28 16:53:00,
2013-07-28 09:58:00,52.5,50.8,30.01,NNW,330,0.0,1.0,94,0.00,,,0.00,WUHU216DAVISVP2,2013-07-28 16:58:00,
2013-07-28 10:03:00,52.7,50.7,30.01,ENE,63,0.0,1.0,93,0.00,,,0.00,WUHU216DAVISVP2,2013-07-28 17:03:00,
2013-07-28 10:08:00,53.2,51.2,30.01,NE,44,0.0,0.0,93,0.00,,,0.00,WUHU216DAVISVP2,2013-07-28 17:08:00,
2013-07-28 10:13:00,53.6,51.3,30.01,NE,47,0.0,1.0,92,0.00,,,0.00,WUHU216DAVISVP2,2013-07-28 17:13:00,
2013-07-28 10:18:00,54.0,51.4,30.01,NNE,13,0.0,1.0,91,0.00,,,0.00,WUHU216DAVISVP2,2013-07-28 17:18:00,
2013-07-28 10:23:00,54.4,51.5,30.01,East,96,0.0,2.0,90,0.00,,,0.00,WUHU216DAVISVP2,2013-07-28 17:23:00,
2013-07-28 10:28:00,54.7,51.8,30.01,North,5,0.0,2.0,90,0.00,,,0.00,WUHU216DAVISVP2,2013-07-28 17:28:00,
2013-07-28 10:33:00,54.9,51.4,30.01,NNE,17,1.0,3.0,88,0.00,,,0.00,WUHU216DAVISVP2,2013-07-28 17:33:00,
2013-07-28 10:37:00,55.0,51.5,30.01,North,5,0.0,3.0,88,0.00,,,0.00,WUHU216DAVISVP2,2013-07-28 17:37:00,
2013-07-28 10:42:00,55.1,51.6,30.00,North,5,0.0,2.0,88,0.00,,,0.00,WUHU216DAVISVP2,2013-07-28 17:42:00,
2013-07-28 10:47:00,55.3,51.8,30.00,NW,325,0.0,3.0,88,0.00,,,0.00,WUHU216DAVISVP2,2013-07-28 17:47:00,
2013-07-28 10:52:00,55.7,51.9,30.00,SE,139,0.0,3.0,87,0.00,,,0.00,WUHU216DAVISVP2,2013-07-28 17:52:00,
2013-07-28 10:57:00,55.9,51.8,30.00,SW,217,3.0,4.0,86,0.00,,,0.00,WUHU216DAVISVP2,2013-07-28 17:57:00,
2013-07-28 11:02:00,55.9,52.1,30.00,West,263,1.0,4.0,87,0.00,,,0.00,WUHU216DAVISVP2,2013-07-28 18:02:00,
2013-07-28 11:07:00,56.4,52.6,30.01,West,275,0.0,4.0,87,0.00,,,0.00,WUHU216DAVISVP2,2013-07-28 18:07:00,
2013-07-28 11:12:00,56.9,52.4,30.00,SSW,210,0.0,1.0,85,0.00,,,0.00,WUHU216DAVISVP2,2013-07-28 18:12:00,
2013-07-28 11:17:00,57.4,52.6,30.00,ENE,77,2.0,2.0,84,0.00,,,0.00,WUHU216DAVISVP2,2013-07-28 18:17:00,
2013-07-28 11:22:00,57.9,52.8,30.00,North,360,2.0,2.0,83,0.00,,,0.00,WUHU216DAVISVP2,2013-07-28 18:22:00,
2013-07-28 11:27:00,58.4,52.6,30.00,NNW,340,2.0,4.0,81,0.00,,,0.00,WUHU216DAVISVP2,2013-07-28 18:27:00,
2013-07-28 11:32:00,58.7,52.9,30.00,ESE,106,0.0,4.0,81,0.00,,,0.00,WUHU216DAVISVP2,2013-07-28 18:32:00,
2013-07-28 11:37:00,59.3,53.5,30.00,NNE,28,3.0,4.0,81,0.00,,,0.00,WUHU216DAVISVP2,2013-07-28 18:37:00,
2013-07-28 11:42:00,59.5,53.3,30.00,NNE,25,0.0,4.0,80,0.00,,,0.00,WUHU216DAVISVP2,2013-07-28 18:42:00,
2013-07-28 11:47:00,59.7,53.2,30.00,NNE,21,4.0,4.0,79,0.00,,,0.00,WUHU216DAVISVP2,2013-07-28 18:47:00,
2013-07-28 11:52:00,59.9,53.4,30.00,NE,46,0.0,4.0,79,0.00,,,0.00,WUHU216DAVISVP2,2013-07-28 18:52:00,
2013-07-28 11:57:00,60.5,53.7,30.00,NNE,24,2.0,4.0,78,0.00,,,0.00,WUHU216DAVISVP2,2013-07-28 18:57:00,
2013-07-28 12:02:00,60.4,53.2,30.00,NNE,33,3.0,4.0,77,0.00,,,0.00,WUHU216DAVISVP2,2013-07-28 19:02:00,
2013-07-28 12:07:00,60.3,53.4,30.00,West,271,0.0,4.0,78,0.00,,,0.00,WUHU216DAVISVP2,2013-07-28 19:07:00,
2013-07-28 12:12:00,60.5,53.7,30.00,North,355,0.0,3.0,78,0.00,,,0.00,WUHU216DAVISVP2,2013-07-28 19:12:00,
2013-07-28 12:17:00,61.0,54.2,30.00,NE,55,1.0,2.0,78,0.00,,,0.00,WUHU216DAVISVP2,2013-07-28 19:17:00,
2013-07-28 12:22:00,61.5,54.0,30.00,NNE,13,5.0,5.0,76,0.00,,,0.00,WUHU216DAVISVP2,2013-07-28 19:22:00,
2013-07-28 12:23:00,61.5,54.0,30.00,NW,306,1.0,5.0,76,0.00,,,0.00,WUHU216DAVISVP2,2013-07-28 19:23:00,
2013-07-28 12:28:00,61.5,53.9,30.00,NE,40,0.0,5.0,76,0.00,,,0.00,WUHU216DAVISVP2,2013-07-28 19:28:00,
2013-07-28 12:33:00,61.6,54.0,30.00,North,5,2.0,4.0,76,0.00,,,0.00,WUHU216DAVISVP2,2013-07-28 19:33:00,
2013-07-28 12:38:00,61.7,54.5,29.99,WNW,296,1.0,4.0,77,0.00,,,0.00,WUHU216DAVISVP2,2013-07-28 19:38:00,
2013-07-28 12:43:00,62.3,54.4,29.99,NNW,348,2.0,4.0,75,0.00,,,0.00,WUHU216DAVISVP2,2013-07-28 19:43:00,
2013-07-28 12:48:00,62.3,54.3,29.99,North,355,3.0,6.0,75,0.00,,,0.00,WUHU216DAVISVP2,2013-07-28 19:48:00,
2013-07-28 12:53:00,62.3,54.3,29.99,NE,44,0.0,6.0,75,0.00,,,0.00,WUHU216DAVISVP2,2013-07-28 19:53:00,
2013-07-28 12:58:00,63.0,55.4,29.99,West,278,0.0,4.0,76,0.00,,,0.00,WUHU216DAVISVP2,2013-07-28 19:58:00,
2013-07-28 13:03:00,63.4,55.1,30.00,NNE,17,1.0,6.0,74,0.00,,,0.00,WUHU216DAVISVP2,2013-07-28 20:03:00,
2013-07-28 13:08:00,63.8,55.4,29.99,NW,324,0.0,6.0,74,0.00,,,0.00,WUHU216DAVISVP2,2013-07-28 20:08:00,
2013-07-28 13:13:00,63.6,54.5,30.00,WNW,290,3.0,5.0,72,0.00,,,0.00,WUHU216DAVISVP2,2013-07-28 20:13:00,
2013-07-28 13:18:00,63.4,54.4,30.00,NE,38,0.0,5.0,72,0.00,,,0.00,WUHU216DAVISVP2,2013-07-28 20:18:00,
2013-07-28 13:23:00,63.5,54.8,29.99,NE,35,1.0,4.0,73,0.00,,,0.00,WUHU216DAVISVP2,2013-07-28 20:23:00,
2013-07-28 13:28:00,63.8,55.5,29.99,NW,315,2.0,2.0,74,0.00,,,0.00,WUHU216DAVISVP2,2013-07-28 20:28:00,
2013-07-28 13:33:00,64.0,55.3,29.99,SSW,207,3.0,3.0,73,0.00,,,0.00,WUHU216DAVISVP2,2013-07-28 20:33:00,
2013-07-28 13:38:00,63.9,54.8,29.99,NW,323,4.0,7.0,72,0.00,,,0.00,WUHU216DAVISVP2,2013-07-28 20:38:00,
2013-07-28 13:43:00,63.7,55.0,29.99,NNW,334,6.0,7.0,73,0.00,,,0.00,WUHU216DAVISVP2,2013-07-28 20:43:00,
2013-07-28 13:48:00,63.8,55.8,29.99,North,5,2.0,6.0,75,0.00,,,0.00,WUHU216DAVISVP2,2013-07-28 20:48:00,
2013-07-28 13:53:00,64.2,54.7,29.99,North,5,2.0,8.0,71,0.00,,,0.00,WUHU216DAVISVP2,2013-07-28 20:53:00,
2013-07-28 13:58:00,64.2,54.7,29.99,NNW,340,4.0,8.0,71,0.00,,,0.00,WUHU216DAVISVP2,2013-07-28 20:58:00,
2013-07-28 14:03:00,64.1,55.0,29.99,South,170,1.0,5.0,72,0.00,,,0.00,WUHU216DAVISVP2,2013-07-28 21:03:00,
2013-07-28 14:08:00,64.8,55.7,29.99,North,9,1.0,5.0,72,0.00,,,0.00,WUHU216DAVISVP2,2013-07-28 21:08:00,
2013-07-28 14:13:00,65.1,54.8,29.99,NE,44,4.0,5.0,69,0.00,,,0.00,WUHU216DAVISVP2,2013-07-28 21:13:00,
2013-07-28 14:18:00,65.2,55.3,29.99,NW,320,2.0,10.0,70,0.00,,,0.00,WUHU216DAVISVP2,2013-07-28 21:18:00,
2013-07-28 14:23:00,65.3,55.4,29.99,NW,306,2.0,10.0,70,0.00,,,0.00,WUHU216DAVISVP2,2013-07-28 21:23:00,
2013-07-28 14:28:00,66.2,55.9,29.99,NNW,342,2.0,7.0,69,0.00,,,0.00,WUHU216DAVISVP2,2013-07-28 21:28:00,
2013-07-28 14:33:00,66.2,55.1,29.99,WNW,283,1.0,8.0,67,0.00,,,0.00,WUHU216DAVISVP2,2013-07-28 21:33:00,
2013-07-28 14:38:00,66.8,55.7,29.99,West,272,3.0,8.0,67,0.00,,,0.00,WUHU216DAVISVP2,2013-07-28 21:38:00,
2013-07-28 14:43:00,66.9,54.9,29.99,NW,319,2.0,4.0,65,0.00,,,0.00,WUHU216DAVISVP2,2013-07-28 21:43:00,
2013-07-28 14:48:00,66.8,55.7,29.99,North,355,0.0,4.0,67,0.00,,,0.00,WUHU216DAVISVP2,2013-07-28 21:48:00,
2013-07-28 14:53:00,67.2,55.6,29.99,NW,317,2.0,4.0,66,0.00,,,0.00,WUHU216DAVISVP2,2013-07-28 21:53:00,
2013-07-28 14:58:00,67.2,55.6,29.99,NE,55,2.0,5.0,66,0.00,,,0.00,WUHU216DAVISVP2,2013-07-28 21:58:00,
2013-07-28 15:03:00,67.1,56.0,29.99,NW,322,1.0,5.0,67,0.00,,,0.00,WUHU216DAVISVP2,2013-07-28 22:03:00,
2013-07-28 15:08:00,67.8,55.2,29.99,NNW,344,4.0,6.0,64,0.00,,,0.00,WUHU216DAVISVP2,2013-07-28 22:08:00,
2013-07-28 15:13:00,67.9,55.9,29.98,SW,218,8.0,8.0,65,0.00,,,0.00,WUHU216DAVISVP2,2013-07-28 22:13:00,
2013-07-28 15:18:00,68.5,55.6,29.98,West,271,7.0,8.0,63,0.00,,,0.00,WUHU216DAVISVP2,2013-07-28 22:18:00,
2013-07-28 15:23:00,68.7,55.2,29.98,SSW,196,7.0,9.0,62,0.00,,,0.00,WUHU216DAVISVP2,2013-07-28 22:23:00,
2013-07-28 15:28:00,68.3,54.5,29.98,NNW,338,5.0,10.0,61,0.00,,,0.00,WUHU216DAVISVP2,2013-07-28 22:28:00,
2013-07-28 15:33:00,67.5,55.1,29.98,ESE,123,1.0,10.0,64,0.00,,,0.00,WUHU216DAVISVP2,2013-07-28 22:33:00,
2013-07-28 15:38:00,67.9,55.0,29.98,NE,49,4.0,4.0,63,0.00,,,0.00,WUHU216DAVISVP2,2013-07-28 22:38:00,
2013-07-28 15:43:00,67.3,54.4,29.98,NNW,331,2.0,7.0,63,0.00,,,0.00,WUHU216DAVISVP2,2013-07-28 22:43:00,
2013-07-28 15:48:00,67.0,54.6,29.98,North,9,1.0,7.0,64,0.00,,,0.00,WUHU216DAVISVP2,2013-07-28 22:48:00,
2013-07-28 15:53:00,66.8,54.0,29.98,NNW,340,0.0,5.0,63,0.00,,,0.00,WUHU216DAVISVP2,2013-07-28 22:53:00,
2013-07-28 15:58:00,67.4,54.5,29.98,NW,325,1.0,5.0,63,0.00,,,0.00,WUHU216DAVISVP2,2013-07-28 22:58:00,
2013-07-28 16:03:00,67.5,55.1,29.98,North,360,0.0,5.0,64,0.00,,,0.00,WUHU216DAVISVP2,2013-07-28 23:03:00,
2013-07-28 16:08:00,67.7,54.8,29.97,NE,36,4.0,7.0,63,0.00,,,0.00,WUHU216DAVISVP2,2013-07-28 23:08:00,
2013-07-28 16:13:00,67.2,55.2,29.97,WSW,239,0.0,7.0,65,0.00,,,0.00,WUHU216DAVISVP2,2013-07-28 23:13:00,
2013-07-28 16:18:00,67.6,55.2,29.97,WSW,246,0.0,5.0,64,0.00,,,0.00,WUHU216DAVISVP2,2013-07-28 23:18:00,
2013-07-28 16:23:00,68.0,55.1,29.96,NNW,331,2.0,3.0,63,0.00,,,0.00,WUHU216DAVISVP2,2013-07-28 23:23:00,
2013-07-28 16:28:00,68.2,55.6,29.96,SW,215,0.0,3.0,64,0.00,,,0.00,WUHU216DAVISVP2,2013-07-28 23:28:00,
2013-07-28 16:33:00,68.4,54.9,29.96,WNW,287,3.0,3.0,62,0.00,,,0.00,WUHU216DAVISVP2,2013-07-28 23:33:00,
2013-07-28 16:38:00,68.8,55.2,29.97,NNE,13,2.0,3.0,62,0.00,,,0.00,WUHU216DAVISVP2,2013-07-28 23:38:00,
2013-07-28 16:43:00,68.8,55.0,29.96,West,273,2.0,6.0,61,0.00,,,0.00,WUHU216DAVISVP2,2013-07-28 23:43:00,
2013-07-28 16:48:00,68.7,55.3,29.96,WNW,288,0.0,6.0,62,0.00,,,0.00,WUHU216DAVISVP2,2013-07-28 23:48:00,
2013-07-28 16:53:00,68.7,54.9,29.96,SSW,209,2.0,5.0,61,0.00,,,0.00,WUHU216DAVISVP2,2013-07-28 23:53:00,
2013-07-28 16:58:00,68.5,54.7,29.96,North,355,3.0,4.0,61,0.00,,,0.00,WUHU216DAVISVP2,2013-07-28 23:58:00,
2013-07-28 17:03:00,68.4,55.1,29.96,North,355,5.0,5.0,62,0.00,,,0.00,WUHU216DAVISVP2,2013-07-29 00:03:00,
2013-07-28 17:08:00,68.6,55.9,29.96,NW,323,5.0,5.0,64,0.00,,,0.00,WUHU216DAVISVP2,2013-07-29 00:08:00,
2013-07-28 17:13:00,68.7,54.3,29.96,North,5,1.0,5.0,60,0.00,,,0.00,WUHU216DAVISVP2,2013-07-29 00:13:00,
2013-07-28 17:18:00,68.4,54.6,29.96,NNE,24,3.0,6.0,61,0.00,,,0.00,WUHU216DAVISVP2,2013-07-29 00:18:00,
2013-07-28 17:23:00,68.5,55.6,29.96,NNW,339,5.0,6.0,63,0.00,,,0.00,WUHU216DAVISVP2,2013-07-29 00:23:00,
2013-07-28 17:28:00,68.7,54.4,29.95,NNW,345,6.0,6.0,60,0.00,,,0.00,WUHU216DAVISVP2,2013-07-29 00:28:00,
2013-07-28 17:33:00,68.3,55.0,29.95,NNW,348,0.0,6.0,62,0.00,,,0.00,WUHU216DAVISVP2,2013-07-29 00:33:00,
2013-07-28 17:38:00,68.5,54.7,29.95,NW,322,1.0,5.0,61,0.00,,,0.00,WUHU216DAVISVP2,2013-07-29 00:38:00,
2013-07-28 17:43:00,68.5,55.1,29.95,NW,318,3.0,5.0,62,0.00,,,0.00,WUHU216DAVISVP2,2013-07-29 00:43:00,
2013-07-28 17:48:00,68.2,54.7,29.95,NNW,331,5.0,5.0,62,0.00,,,0.00,WUHU216DAVISVP2,2013-07-29 00:48:00,
2013-07-28 17:53:00,68.2,54.7,29.95,NW,313,0.0,5.0,62,0.00,,,0.00,WUHU216DAVISVP2,2013-07-29 00:53:00,
2013-07-28 17:58:00,68.5,55.0,29.95,NW,320,0.0,7.0,62,0.00,,,0.00,WUHU216DAVISVP2,2013-07-29 00:58:00,
2013-07-28 18:04:00,68.6,54.6,29.95,NW,315,0.0,7.0,61,0.00,,,0.00,WUHU216DAVISVP2,2013-07-29 01:04:00,
2013-07-28 18:09:00,69.1,55.5,29.94,SW,224,1.0,6.0,62,0.00,,,0.00,WUHU216DAVISVP2,2013-07-29 01:09:00,
2013-07-28 18:14:00,68.8,55.2,29.94,West,276,4.0,6.0,62,0.00,,,0.00,WUHU216DAVISVP2,2013-07-29 01:14:00,
2013-07-28 18:19:00,68.4,55.5,29.94,WNW,284,1.0,5.0,63,0.00,,,0.00,WUHU216DAVISVP2,2013-07-29 01:19:00,
2013-07-28 18:24:00,68.2,54.9,29.94,NW,307,1.0,5.0,62,0.00,,,0.00,WUHU216DAVISVP2,2013-07-29 01:24:00,
2013-07-28 18:29:00,68.1,54.8,29.94,NNW,335,2.0,5.0,62,0.00,,,0.00,WUHU216DAVISVP2,2013-07-29 01:29:00,
2013-07-28 18:34:00,68.0,54.7,29.95,NNW,346,3.0,5.0,62,0.00,,,0.00,WUHU216DAVISVP2,2013-07-29 01:34:00,
2013-07-28 18:39:00,67.9,55.3,29.95,NW,313,6.0,6.0,64,0.00,,,0.00,WUHU216DAVISVP2,2013-07-29 01:39:00,
2013-07-28 18:45:00,67.9,54.8,29.95,NW,319,1.0,6.0,63,0.00,,,0.00,WUHU216DAVISVP2,2013-07-29 01:45:00,
2013-07-28 18:50:00,67.9,54.6,29.95,NNW,348,5.0,5.0,62,0.00,,,0.00,WUHU216DAVISVP2,2013-07-29 01:50:00,
2013-07-28 18:55:00,67.5,55.1,29.95,NNW,348,3.0,5.0,64,0.00,,,0.00,WUHU216DAVISVP2,2013-07-29 01:55:00,
2013-07-28 19:00:00,67.4,55.0,29.95,NW,305,2.0,5.0,64,0.00,,,0.00,WUHU216DAVISVP2,2013-07-29 02:00:00,
2013-07-28 19:05:00,67.2,54.6,29.95,WNW,286,0.0,3.0,64,0.00,,,0.00,WUHU216DAVISVP2,2013-07-29 02:05:00,
2013-07-28 19:10:00,67.0,54.8,29.95,NW,309,1.0,4.0,65,0.00,,,0.00,WUHU216DAVISVP2,2013-07-29 02:10:00,
2013-07-28 19:15:00,66.4,54.3,29.95,North,349,1.0,7.0,65,0.00,,,0.00,WUHU216DAVISVP2,2013-07-29 02:15:00,
2013-07-28 19:20:00,65.9,54.8,29.95,East,93,0.0,7.0,67,0.00,,,0.00,WUHU216DAVISVP2,2013-07-29 02:20:00,
2013-07-28 19:25:00,65.4,54.2,29.95,WNW,298,1.0,9.0,67,0.00,,,0.00,WUHU216DAVISVP2,2013-07-29 02:25:00,
2013-07-28 19:30:00,65.2,54.4,29.95,NW,325,0.0,9.0,68,0.00,,,0.00,WUHU216DAVISVP2,2013-07-29 02:30:00,
2013-07-28 19:36:00,65.1,54.7,29.95,WNW,298,0.0,3.0,69,0.00,,,0.00,WUHU216DAVISVP2,2013-07-29 02:36:00,
2013-07-28 19:41:00,64.9,54.5,29.94,NW,314,0.0,2.0,69,0.00,,,0.00,WUHU216DAVISVP2,2013-07-29 02:41:00,
2013-07-28 19:46:00,64.5,54.5,29.94,NNW,327,0.0,3.0,70,0.00,,,0.00,WUHU216DAVISVP2,2013-07-29 02:46:00,
2013-07-28 19:51:00,64.2,54.4,29.94,South,184,2.0,4.0,70,0.00,,,0.00,WUHU216DAVISVP2,2013-07-29 02:51:00,
2013-07-28 19:56:00,63.8,54.4,29.95,West,275,0.0,4.0,71,0.00,,,0.00,WUHU216DAVISVP2,2013-07-29 02:56:00,
2013-07-28 20:01:00,63.4,53.8,29.95,NW,312,0.0,4.0,71,0.00,,,0.00,WUHU216DAVISVP2,2013-07-29 03:01:00,
2013-07-28 20:06:00,63.1,54.1,29.95,SW,236,0.0,4.0,72,0.00,,,0.00,WUHU216DAVISVP2,2013-07-29 03:06:00,
2013-07-28 20:11:00,62.8,54.1,29.95,WSW,240,1.0,3.0,73,0.00,,,0.00,WUHU216DAVISVP2,2013-07-29 03:11:00,
2013-07-28 20:16:00,62.5,53.9,29.95,North,355,1.0,3.0,73,0.00,,,0.00,WUHU216DAVISVP2,2013-07-29 03:16:00,
2013-07-28 20:21:00,62.1,53.8,29.96,West,265,0.0,3.0,74,0.00,,,0.00,WUHU216DAVISVP2,2013-07-29 03:21:00,
2013-07-28 20:26:00,61.8,53.9,29.96,WNW,303,1.0,3.0,75,0.00,,,0.00,WUHU216DAVISVP2,2013-07-29 03:26:00,
2013-07-28 20:32:00,61.5,53.6,29.96,NW,315,0.0,6.0,75,0.00,,,0.00,WUHU216DAVISVP2,2013-07-29 03:32:00,
2013-07-28 20:37:00,61.2,53.7,29.96,NNW,340,0.0,4.0,76,0.00,,,0.00,WUHU216DAVISVP2,2013-07-29 03:37:00,
2013-07-28 20:42:00,60.8,53.6,29.96,West,274,3.0,4.0,77,0.00,,,0.00,WUHU216DAVISVP2,2013-07-29 03:42:00,
2013-07-28 20:47:00,60.5,53.3,29.96,SW,221,0.0,3.0,77,0.00,,,0.00,WUHU216DAVISVP2,2013-07-29 03:47:00,
2013-07-28 20:53:00,60.2,53.4,29.96,North,5,0.0,2.0,78,0.00,,,0.00,WUHU216DAVISVP2,2013-07-29 03:53:00,
2013-07-28 20:58:00,59.9,53.1,29.97,NW,304,0.0,3.0,78,0.00,,,0.00,WUHU216DAVISVP2,2013-07-29 03:58:00,
2013-07-28 21:01:00,59.7,53.2,29.97,SW,217,0.0,3.0,79,0.00,,,0.00,WUHU216DAVISVP2,2013-07-29 04:01:00,
2013-07-28 21:06:00,59.4,52.9,29.97,South,186,1.0,3.0,79,0.00,,,0.00,WUHU216DAVISVP2,2013-07-29 04:06:00,
2013-07-28 21:11:00,59.1,53.0,29.97,SW,223,0.0,3.0,80,0.00,,,0.00,WUHU216DAVISVP2,2013-07-29 04:11:00,
2013-07-28 21:16:00,58.8,52.7,29.97,SW,223,0.0,0.0,80,0.00,,,0.00,WUHU216DAVISVP2,2013-07-29 04:16:00,
2013-07-28 21:21:00,58.7,52.9,29.97,SW,223,0.0,0.0,81,0.00,,,0.00,WUHU216DAVISVP2,2013-07-29 04:21:00,
2013-07-28 21:26:00,58.4,52.6,29.98,SW,220,0.0,2.0,81,0.00,,,0.00,WUHU216DAVISVP2,2013-07-29 04:26:00,
2013-07-28 21:31:00,58.2,52.4,29.98,NW,311,0.0,2.0,81,0.00,,,0.00,WUHU216DAVISVP2,2013-07-29 04:31:00,
2013-07-28 21:36:00,58.0,52.2,29.98,West,262,0.0,3.0,81,0.00,,,0.00,WUHU216DAVISVP2,2013-07-29 04:36:00,
2013-07-28 21:41:00,57.8,52.0,29.98,SW,227,0.0,3.0,81,0.00,,,0.00,WUHU216DAVISVP2,2013-07-29 04:41:00,
2013-07-28 21:46:00,57.6,52.2,29.98,West,267,0.0,1.0,82,0.00,,,0.00,WUHU216DAVISVP2,2013-07-29 04:46:00,
2013-07-28 21:51:00,57.5,52.1,29.98,WSW,244,0.0,1.0,82,0.00,,,0.00,WUHU216DAVISVP2,2013-07-29 04:51:00,
2013-07-28 21:57:00,57.4,52.0,29.98,WSW,244,0.0,1.0,82,0.00,,,0.00,WUHU216DAVISVP2,2013-07-29 04:57:00,
2013-07-28 22:02:00,57.3,52.2,29.98,West,267,0.0,1.0,83,0.00,,,0.00,WUHU216DAVISVP2,2013-07-29 05:02:00,
2013-07-28 22:07:00,57.3,52.2,29.98,West,267,0.0,1.0,83,0.00,,,0.00,WUHU216DAVISVP2,2013-07-29 05:07:00,
2013-07-28 22:12:00,57.3,52.2,29.98,West,263,0.0,0.0,83,0.00,,,0.00,WUHU216DAVISVP2,2013-07-29 05:12:00,
2013-07-28 22:17:00,57.2,52.1,29.98,West,267,0.0,0.0,83,0.00,,,0.00,WUHU216DAVISVP2,2013-07-29 05:17:00,
2013-07-28 22:22:00,57.1,52.0,29.98,North,9,0.0,0.0,83,0.00,,,0.00,WUHU216DAVISVP2,2013-07-29 05:22:00,
2013-07-28 22:27:00,57.0,51.9,29.98,North,9,0.0,0.0,83,0.00,,,0.00,WUHU216DAVISVP2,2013-07-29 05:27:00,
2013-07-28 22:32:00,56.9,51.8,29.98,North,9,0.0,2.0,83,0.00,,,0.00,WUHU216DAVISVP2,2013-07-29 05:32:00,
2013-07-28 22:37:00,56.8,51.7,29.98,North,9,0.0,2.0,83,0.00,,,0.00,WUHU216DAVISVP2,2013-07-29 05:37:00,
2013-07-28 22:42:00,56.8,51.7,29.98,North,5,0.0,1.0,83,0.00,,,0.00,WUHU216DAVISVP2,2013-07-29 05:42:00,
2013-07-28 22:47:00,56.7,51.9,29.98,North,5,0.0,0.0,84,0.00,,,0.00,WUHU216DAVISVP2,2013-07-29 05:47:00,
2013-07-28 22:52:00,56.6,51.8,29.97,North,5,0.0,0.0,84,0.00,,,0.00,WUHU216DAVISVP2,2013-07-29 05:52:00,
2013-07-28 22:57:00,56.6,51.8,29.97,North,5,0.0,0.0,84,0.00,,,0.00,WUHU216DAVISVP2,2013-07-29 05:57:00,
2013-07-28 23:02:00,56.6,51.8,29.97,North,5,1.0,1.0,84,0.00,,,0.00,WUHU216DAVISVP2,2013-07-29 06:02:00,
2013-07-28 23:07:00,56.5,51.7,29.97,North,355,0.0,2.0,84,0.00,,,0.00,WUHU216DAVISVP2,2013-07-29 06:07:00,
2013-07-28 23:12:00,56.5,51.7,29.98,North,355,0.0,2.0,84,0.00,,,0.00,WUHU216DAVISVP2,2013-07-29 06:12:00,
2013-07-28 23:17:00,56.4,51.6,29.97,North,355,0.0,0.0,84,0.00,,,0.00,WUHU216DAVISVP2,2013-07-29 06:17:00,
2013-07-28 23:22:00,56.4,51.6,29.98,North,355,0.0,1.0,84,0.00,,,0.00,WUHU216DAVISVP2,2013-07-29 06:22:00,
2013-07-28 23:27:00,56.4,51.6,29.98,North,355,0.0,1.0,84,0.00,,,0.00,WUHU216DAVISVP2,2013-07-29 06:27:00,
2013-07-28 23:32:00,56.3,51.5,29.98,NE,37,0.0,2.0,84,0.00,,,0.00,WUHU216DAVISVP2,2013-07-29 06:32:00,
2013-07-28 23:37:00,56.3,51.5,29.98,North,349,0.0,4.0,84,0.00,,,0.00,WUHU216DAVISVP2,2013-07-29 06:37:00,
2013-07-28 23:42:00,56.3,51.5,29.98,North,11,1.0,4.0,84,0.00,,,0.00,WUHU216DAVISVP2,2013-07-29 06:42:00,
2013-07-28 23:47:00,56.2,51.4,29.98,North,11,0.0,2.0,84,0.00,,,0.00,WUHU216DAVISVP2,2013-07-29 06:47:00,
2013-07-28 23:52:00,56.1,51.3,29.97,NNW,347,0.0,2.0,84,0.00,,,0.00,WUHU216DAVISVP2,2013-07-29 06:52:00,
2013-07-28 23:57:00,56.0,51.2,29.97,North,350,0.0,2.0,84,0.00,,,0.00,WUHU216DAVISVP2,2013-07-29 06:57:00,